Location: Tr�vern
(48.0333°N, 4.6000°W)
Time: 18:48:45
(UTC+00:00)

CRYOSAT 2 - Pass Details

Date: 14 July 2020
Orbit: 714 x 724 km, 92.0° (Epoch: 12 August)

Event Time Altitude Azimuth Distance (km) Brightness Sun altitude
Rises 00:23:06 0° 5° (N) 3,133 9.3 -20.3°
Reaches altitude 10° 00:25:24 10° 6° (N) 2,208 8.1 -20.3°
Maximum altitude 00:30:18 83° 94° (E) 727 4.3 -20.3°
Enters shadow 00:31:46 46° 177° (S) 960 4.5 -20.3°
